When you browse on this site, cookies collect data to enhance your experience and personalize the content and advertising you see.
Visit our Privacy Policy to learn more. By continuing to use the site, you agree to this use of cookies and data.
  • In Hungary
  • List of Countries
  • For 7 days
  • Water Temperature
  • Weather Map
  • News
  • Weather Widgets
  • user-avatar
    Login

    Hourly Weather Liny

    Today, 8 December, Sunday

    Time Temperature Precipitation Wind Pressure Humidity
    00:00 +7°C° 0 mm 6 mps 752 mmHg 80%
    01:00 +6°C° 0 mm 5 mps 752 mmHg 80%
    02:00 +6°C° 0 mm 5 mps 752 mmHg 81%
    03:00 +6°C° 0 mm 5 mps 751 mmHg 81%
    04:00 +5°C° 0 mm 5 mps 751 mmHg 82%
    05:00 +5°C° 0 mm 5 mps 751 mmHg 83%
    06:00 +5°C° 0 mm 5 mps 751 mmHg 84%
    07:00 +3°C° 0 mm 5 mps 751 mmHg 85%
    08:00 +4°C° 0 mm 6 mps 750 mmHg 81%
    09:00 +4°C° 0 mm 6 mps 749 mmHg 78%
    10:00 +5°C° 0 mm 7 mps 748 mmHg 75%
    11:00 +6°C° 0 mm 7 mps 748 mmHg 73%
    12:00 +6°C° 0 mm 7 mps 747 mmHg 71%
    13:00 +7°C° 0 mm 8 mps 746 mmHg 69%
    14:00 +8°C° 0.2 mm 7 mps 746 mmHg 73%
    15:00 +8°C° 0.2 mm 7 mps 745 mmHg 76%
    16:00 +8°C° 0.2 mm 7 mps 745 mmHg 80%
    17:00 +8°C° 0.4 mm 7 mps 745 mmHg 80%
    18:00 +8°C° 0.4 mm 7 mps 744 mmHg 79%
    19:00 +9°C° 0.4 mm 7 mps 744 mmHg 79%
    20:00 +9°C° 0.1 mm 6 mps 744 mmHg 80%
    21:00 +9°C° 0.1 mm 6 mps 744 mmHg 82%
    22:00 +9°C° 0.1 mm 5 mps 743 mmHg 83%
    23:00 +8°C° 0.3 mm 5 mps 743 mmHg 83%

    Tomorrow, 9 December, Monday

    Time Temperature Precipitation Wind Pressure Humidity
    00:00 +8°C° 0.3 mm 4 mps 743 mmHg 82%
    01:00 +8°C° 0.3 mm 4 mps 743 mmHg 82%
    02:00 +7°C° 0 mm 4 mps 743 mmHg 80%
    03:00 +7°C° 0 mm 4 mps 743 mmHg 78%
    04:00 +6°C° 0 mm 5 mps 743 mmHg 76%
    05:00 +6°C° 0 mm 5 mps 743 mmHg 77%
    06:00 +5°C° 0 mm 5 mps 743 mmHg 77%
    07:00 +5°C° 0 mm 5 mps 743 mmHg 78%
    08:00 +5°C° 0 mm 5 mps 743 mmHg 76%
    09:00 +6°C° 0 mm 5 mps 743 mmHg 73%
    10:00 +5°C° 0 mm 6 mps 744 mmHg 71%
    11:00 +5°C° 0 mm 6 mps 743 mmHg 68%
    12:00 +6°C° 0 mm 7 mps 743 mmHg 66%
    13:00 +6°C° 0 mm 7 mps 743 mmHg 64%
    14:00 +7°C° 0 mm 6 mps 742 mmHg 68%
    15:00 +6°C° 0 mm 5 mps 742 mmHg 72%
    16:00 +6°C° 0 mm 5 mps 742 mmHg 76%
    17:00 +6°C° 0.1 mm 5 mps 742 mmHg 78%
    18:00 +5°C° 0.1 mm 4 mps 743 mmHg 79%
    19:00 +5°C° 0.1 mm 4 mps 743 mmHg 80%
    20:00 +5°C° 0.5 mm 4 mps 744 mmHg 82%
    21:00 +5°C° 0.5 mm 4 mps 744 mmHg 85%
    22:00 +5°C° 0.5 mm 5 mps 745 mmHg 87%
    23:00 +5°C° 0.2 mm 5 mps 746 mmHg 84%

    Day after tomorrow, 10 December, Tuesday

    Time Temperature Precipitation Wind Pressure Humidity
    00:00 +4°C° 0.2 mm 6 mps 747 mmHg 82%
    01:00 +3°C° 0.2 mm 6 mps 748 mmHg 79%
    02:00 +3°C° 0 mm 7 mps 748 mmHg 79%
    03:00 +2°C° 0 mm 7 mps 749 mmHg 78%
    04:00 +2°C° 0 mm 7 mps 750 mmHg 77%
    05:00 +2°C° 0.2 mm 7 mps 750 mmHg 82%
    06:00 0°C° 0.2 mm 7 mps 751 mmHg 87%
    07:00 0°C° 0.2 mm 7 mps 752 mmHg 92%
    08:00 +2°C° 0.7 mm 7 mps 753 mmHg 88%
    09:00 +2°C° 0.7 mm 7 mps 753 mmHg 85%
    10:00 +3°C° 0.7 mm 7 mps 754 mmHg 81%
    11:00 +2°C° 0.1 mm 7 mps 755 mmHg 81%
    12:00 +2°C° 0.1 mm 7 mps 756 mmHg 80%
    13:00 +2°C° 0.1 mm 6 mps 757 mmHg 80%
    14:00 +2°C° 0 mm 6 mps 757 mmHg 77%
    15:00 +2°C° 0 mm 5 mps 758 mmHg 74%
    16:00 +1°C° 0 mm 5 mps 759 mmHg 70%
    17:00 +1°C° 0 mm 4 mps 759 mmHg 72%
    18:00 +1°C° 0 mm 3 mps 760 mmHg 74%
    19:00 +1°C° 0 mm 2 mps 761 mmHg 76%
    20:00 -1°C° 0 mm 2 mps 761 mmHg 78%
    21:00 -1°C° 0 mm 2 mps 761 mmHg 79%
    22:00 -1°C° 0 mm 2 mps 761 mmHg 80%
    23:00 -1°C° 0 mm 2 mps 760 mmHg 80%

    11 December, Wednesday

    Time Temperature Precipitation Wind Pressure Humidity
    00:00 -1°C° 0 mm 2 mps 760 mmHg 80%
    01:00 -1°C° 0 mm 2 mps 760 mmHg 80%
    02:00 -1°C° 0 mm 2 mps 759 mmHg 81%
    03:00 -1°C° 0 mm 3 mps 759 mmHg 82%
    04:00 -1°C° 0 mm 3 mps 759 mmHg 83%
    05:00 -1°C° 0 mm 3 mps 758 mmHg 81%
    06:00 -1°C° 0 mm 3 mps 758 mmHg 79%
    07:00 -2°C° 0 mm 4 mps 757 mmHg 78%
    08:00 -2°C° 0 mm 4 mps 757 mmHg 73%
    09:00 -1°C° 0 mm 4 mps 756 mmHg 68%
    10:00 -1°C° 0 mm 4 mps 756 mmHg 64%
    11:00 0°C° 0 mm 4 mps 755 mmHg 63%
    12:00 0°C° 0 mm 4 mps 755 mmHg 63%
    13:00 +1°C° 0 mm 4 mps 754 mmHg 62%
    14:00 +1°C° 0 mm 3 mps 753 mmHg 65%
    15:00 +1°C° 0 mm 3 mps 753 mmHg 68%
    16:00 0°C° 0 mm 3 mps 752 mmHg 71%
    17:00 0°C° 0 mm 3 mps 751 mmHg 70%
    18:00 0°C° 0 mm 3 mps 751 mmHg 69%
    19:00 0°C° 0 mm 3 mps 751 mmHg 68%
    20:00 0°C° 0 mm 3 mps 750 mmHg 67%
    21:00 0°C° 0 mm 3 mps 750 mmHg 66%
    22:00 0°C° 0 mm 4 mps 750 mmHg 65%
    23:00 -1°C° 0.2 mm 4 mps 750 mmHg 75%

    12 December, Thursday

    Time Temperature Precipitation Wind Pressure Humidity
    00:00 -1°C° 0.2 mm 4 mps 749 mmHg 85%
    01:00 -1°C° 0.2 mm 5 mps 749 mmHg 95%
    02:00 0°C° 0.1 mm 5 mps 749 mmHg 93%
    03:00 0°C° 0.1 mm 5 mps 748 mmHg 91%
    04:00 +1°C° 0.1 mm 5 mps 748 mmHg 89%
    05:00 0°C° 0 mm 4 mps 748 mmHg 89%
    06:00 0°C° 0 mm 4 mps 748 mmHg 88%
    07:00 -1°C° 0 mm 4 mps 748 mmHg 88%
    08:00 0°C° 0 mm 4 mps 749 mmHg 84%
    09:00 +1°C° 0 mm 5 mps 749 mmHg 81%
    10:00 +2°C° 0 mm 6 mps 749 mmHg 77%
    11:00 +2°C° 0 mm 6 mps 749 mmHg 76%
    12:00 +2°C° 0 mm 5 mps 749 mmHg 76%
    13:00 +2°C° 0 mm 5 mps 749 mmHg 75%
    14:00 +2°C° 0 mm 5 mps 750 mmHg 76%
    15:00 +1°C° 0 mm 4 mps 750 mmHg 78%
    16:00 0°C° 0 mm 4 mps 750 mmHg 79%
    17:00 0°C° 0 mm 4 mps 750 mmHg 80%
    18:00 0°C° 0 mm 4 mps 750 mmHg 80%
    19:00 -1°C° 0 mm 4 mps 750 mmHg 81%
    20:00 -1°C° 0 mm 4 mps 749 mmHg 80%
    21:00 -1°C° 0 mm 4 mps 749 mmHg 80%
    22:00 -1°C° 0 mm 4 mps 748 mmHg 80%
    23:00 -1°C° 0 mm 5 mps 747 mmHg 79%

    13 December, Friday

    Time Temperature Precipitation Wind Pressure Humidity
    00:00 -1°C° 0 mm 5 mps 746 mmHg 78%
    01:00 -1°C° 0 mm 5 mps 745 mmHg 77%
    02:00 -2°C° 0 mm 6 mps 744 mmHg 73%
    03:00 -2°C° 0 mm 6 mps 742 mmHg 70%
    04:00 -1°C° 0 mm 7 mps 741 mmHg 66%
    05:00 -1°C° 0 mm 7 mps 739 mmHg 64%
    06:00 0°C° 0 mm 7 mps 738 mmHg 61%
    07:00 0°C° 0 mm 8 mps 736 mmHg 59%
    08:00 +1°C° 1.4 mm 8 mps 736 mmHg 66%
    09:00 +1°C° 1.4 mm 8 mps 735 mmHg 74%
    10:00 +1°C° 1.4 mm 8 mps 734 mmHg 82%
    11:00 +2°C° 0.6 mm 7 mps 734 mmHg 82%
    12:00 +2°C° 0.6 mm 7 mps 733 mmHg 81%
    13:00 +3°C° 0.6 mm 7 mps 732 mmHg 81%
    14:00 +3°C° 0 mm 6 mps 733 mmHg 80%
    15:00 +3°C° 0 mm 6 mps 733 mmHg 79%
    16:00 +3°C° 0 mm 5 mps 734 mmHg 79%
    17:00 +3°C° 0 mm 5 mps 734 mmHg 77%
    18:00 +2°C° 0 mm 5 mps 735 mmHg 75%
    19:00 +2°C° 0 mm 5 mps 735 mmHg 73%
    20:00 +2°C° 0 mm 6 mps 736 mmHg 74%
    21:00 +2°C° 0 mm 6 mps 736 mmHg 75%
    22:00 +2°C° 0 mm 6 mps 736 mmHg 75%
    23:00 +2°C° 0.1 mm 6 mps 737 mmHg 78%
    Show more